Stuart, FL

11:22 PM EDT on October 20, 2017 (GMT -0400)
Witham

Weather History for KSUA - December, 2012

Change the Weather History Date:

Friday, December 14, 2012

  Actual Average Record
Temperature  
Mean Temperature 70 °F -  
Max Temperature 77 °F 76 °F 85 °F (1953)
Min Temperature 62 °F 57 °F 29 °F (1962)
Cooling Degree Days 4    
Growing Degree Days 20 (Base 50)    
Moisture  
Dew Point 62 °F    
Average Humidity 84    
Maximum Humidity 100    
Minimum Humidity 50    
Precipitation  
Precipitation 0.11 in - - ()
Sea Level Pressure  
Sea Level Pressure 30.12 in    
Wind  
Wind Speed 7 mph (NNW)    
Max Wind Speed 15 mph    
Max Gust Speed 23 mph    
Visibility 8 miles    
Events Rain    
Averages and records for this station are not official NWS values.
T = Trace of Precipitation, MM = Missing Value Source: NWS Daily Summary

Daily Weather History Graph

Daily Weather History Graph

Search for Another Location

Airport or City:

Trip Planner

Search our weather history database for the weather conditions in past years. The results will help you decide how hot, cold, wet, or windy it might be!

Date:

Astronomy

Dec. 14, 2012 Rise Set
Actual Time 7:02 AM EST 5:29 PM EST
Civil Twilight 6:37 AM EST 5:54 PM EST
Nautical Twilight 6:07 AM EST 6:23 PM EST
Astronomical Twilight 5:39 AM EST 6:52 PM EST
Moon 8:10 AM EST (12/14) 7:14 PM EST (12/14)
Length of Visible Light 11h 17m
Length of Day
10h 26m
Waxing Crescent, 3% of the Moon is Illuminated
Dec 14
Waxing Crescent
Dec 20
First Quarter
Dec 28
Full
Jan 4
Last Quarter
Jan 11
New

Hourly Weather History & Observations

Time (EST) Temp. Dew Point Humidity Pressure Visibility Wind Dir Wind Speed Gust Speed Precip Events Conditions
12:15 AM 62.6 °F 60.8 °F 94% 30.12 in 10.0 mi NNW 8.1 mph - N/A   Scattered Clouds
12:35 AM 62.6 °F 60.8 °F 94% 30.12 in 10.0 mi NNW 10.4 mph - N/A   Clear
12:55 AM 62.6 °F 60.8 °F 94% 30.12 in 7.0 mi NNW 5.8 mph - N/A Rain Rain
1:15 AM 62.6 °F 60.8 °F 94% 30.12 in 7.0 mi WNW 5.8 mph - 0.02 in   Light Drizzle
1:35 AM 62.6 °F 60.8 °F 94% 30.12 in 7.0 mi WNW 4.6 mph - 0.03 in Rain Light Rain
1:55 AM 62.6 °F 60.8 °F 94% 30.12 in 7.0 mi WNW 6.9 mph - 0.03 in   Overcast
2:15 AM 62.6 °F 60.8 °F 94% 30.11 in 7.0 mi WNW 5.8 mph - N/A   Overcast
2:35 AM 62.6 °F 60.8 °F 94% 30.11 in 7.0 mi WNW 5.8 mph - N/A   Light Drizzle
2:55 AM 62.6 °F 60.8 °F 94% 30.11 in 7.0 mi NW 9.2 mph - 0.01 in   Drizzle
3:15 AM 62.6 °F 60.8 °F 94% 30.10 in 7.0 mi WNW 4.6 mph - N/A   Overcast
3:35 AM 62.6 °F 60.8 °F 94% 30.10 in 7.0 mi NW 5.8 mph - N/A   Mostly Cloudy
3:55 AM 62.6 °F 60.8 °F 94% 30.10 in 7.0 mi NW 6.9 mph - N/A   Scattered Clouds
4:15 AM 62.6 °F 60.8 °F 94% 30.10 in 7.0 mi NW 6.9 mph - N/A   Mostly Cloudy
4:35 AM 62.6 °F 60.8 °F 94% 30.10 in 7.0 mi West 5.8 mph - N/A   Overcast
4:55 AM 62.6 °F 60.8 °F 94% 30.10 in 7.0 mi WNW 5.8 mph - 0.01 in Rain Light Rain
5:15 AM 62.6 °F 60.8 °F 94% 30.10 in 7.0 mi WNW 4.6 mph - N/A   Overcast
6:47 AM 62.6 °F 62.6 °F 100% 30.12 in 6.0 mi West 4.6 mph - N/A   Mostly Cloudy
7:47 AM 68.0 °F 64.4 °F 88% 30.13 in 7.0 mi NNE 9.2 mph - N/A   Mostly Cloudy
8:47 AM 73.4 °F 59.0 °F 61% 30.15 in 10.0 mi NE 9.2 mph 18.4 mph N/A   Scattered Clouds
9:47 AM 75.2 °F 57.2 °F 53% 30.16 in 10.0 mi NNE 11.5 mph 18.4 mph N/A   Partly Cloudy
10:47 AM 77.0 °F 57.2 °F 50% 30.16 in 10.0 mi NE 12.7 mph 23.0 mph N/A   Scattered Clouds
11:47 AM 77.0 °F 57.2 °F 50% 30.16 in 10.0 mi NNE 12.7 mph 18.4 mph N/A   Scattered Clouds
12:47 PM 77.0 °F 57.2 °F 50% 30.16 in 10.0 mi NNE 15.0 mph 18.4 mph N/A   Scattered Clouds
1:47 PM 77.0 °F 57.2 °F 50% 30.16 in 10.0 mi NNE 13.8 mph 18.4 mph N/A   Partly Cloudy
2:47 PM 77.0 °F 59.0 °F 54% 30.10 in 10.0 mi NNE 15.0 mph 19.6 mph N/A   Partly Cloudy
4:07 PM 71.6 °F 66.2 °F 83% 30.10 in 5.0 mi ENE 9.2 mph 21.9 mph N/A Rain Rain Showers
5:47 PM 68.0 °F 66.2 °F 94% 30.09 in 7.0 mi North 5.8 mph - N/A   Mostly Cloudy
6:47 PM 68.0 °F 66.2 °F 94% 30.11 in 7.0 mi Calm Calm - N/A   Overcast
7:15 PM 68.0 °F 66.2 °F 94% 30.12 in 10.0 mi NNW 4.6 mph - N/A   Overcast
7:35 PM 68.0 °F 66.2 °F 94% 30.12 in 10.0 mi NNW 6.9 mph - 0.01 in   Overcast
7:55 PM 68.0 °F 64.4 °F 88% 30.12 in 10.0 mi NW 5.8 mph - 0.02 in   Overcast
8:15 PM 68.0 °F 66.2 °F 94% 30.12 in 10.0 mi WNW 5.8 mph - N/A   Scattered Clouds
8:55 PM 68.0 °F 64.4 °F 88% 30.12 in 10.0 mi Calm Calm - N/A   Mostly Cloudy
9:15 PM 69.8 °F 66.2 °F 88% 30.12 in 10.0 mi ENE 15.0 mph 21.9 mph N/A   Scattered Clouds
9:35 PM 71.6 °F 64.4 °F 78% 30.12 in 10.0 mi East 12.7 mph 20.7 mph N/A   Clear
9:55 PM 71.6 °F 64.4 °F 78% 30.12 in 10.0 mi ESE 5.8 mph - N/A   Mostly Cloudy
10:15 PM 71.6 °F 64.4 °F 78% 30.13 in 10.0 mi East 4.6 mph - N/A   Overcast
10:35 PM 71.6 °F 64.4 °F 78% 30.12 in 10.0 mi ESE 9.2 mph - N/A   Overcast
10:55 PM 69.8 °F 64.4 °F 83% 30.12 in 10.0 mi ESE 9.2 mph - N/A   Overcast
11:15 PM 69.8 °F 64.4 °F 83% 30.12 in 10.0 mi SSE 4.6 mph - N/A   Overcast
11:35 PM 69.8 °F 64.4 °F 83% 30.13 in 10.0 mi NW 3.5 mph - N/A   Overcast
11:55 PM 68.0 °F 64.4 °F 88% 30.13 in 5.0 mi Calm Calm - 0.04 in Rain Rain